QPF
0.04 0.04 0.04 0.05 0.04 0.02 0.01 0.01 0.00 0.00 0.00 0.00 0.00 0.00 0.00 0.01 0.01 0.01 0.01 0.01 0.03 0.05 0.04 0.04 0.05 0.05 0.05 0.04 0.03 0.03 0.03 0.03 0.02 0.03 0.04 0.03 0.03 0.04 0.03 0.02 0.03 0.04 0.05
0.04 0.04 0.04 0.05 0.05 0.03 0.02 0.01 0.00 0.00 0.00 0.00 0.00 0.00 0.00 0.00 0.00 0.00 0.01 0.01 0.02 0.04 0.04 0.04 0.05 0.05 0.06 0.05 0.03 0.02 0.03 0.02 0.03 0.02 0.03 0.04 0.03 0.03 0.04 0.04 0.03 0.04 0.05
0.05 0.05 0.05 0.05 0.04 0.04 0.03 0.02 0.01 0.00 0.00 0.00 0.00 0.00 0.00 0.00 0.00 0.00 0.00 0.01 0.01 0.02 0.03 0.04 0.04 0.05 0.05 0.04 0.03 0.03 0.03 0.04 0.03 0.03 0.03 0.03 0.04 0.04 0.04 0.05 0.05 0.03 0.04
0.05 0.05 0.05 0.05 0.04 0.05 0.05 0.02 0.01 0.00 0.00 0.00 0.00 0.00 0.00 0.00 0.00 0.00 0.00 0.00 0.01 0.01 0.03 0.04 0.04 0.05 0.05 0.05 0.04 0.03 0.03 0.04 0.04 0.03 0.02 0.03 0.04 0.05 0.04 0.04 0.04 0.04 0.03
0.06 0.06 0.05 0.06 0.04 0.04 0.05 0.04 0.02 0.01 0.01 0.00 0.00 0.00 0.00 0.00 0.00 0.00 0.00 0.01 0.01 0.01 0.02 0.03 0.04 0.03 0.03 0.03 0.04 0.03 0.03 0.04 0.04 0.02 0.02 0.02 0.03 0.04 0.04 0.04 0.04 0.05 0.04
0.05 0.06 0.07 0.08 0.07 0.05 0.04 0.03 0.03 0.02 0.01 0.01 0.00 0.00 0.00 0.00 0.00 0.00 0.00 0.01 0.01 0.01 0.01 0.02 0.02 0.02 0.02 0.02 0.03 0.03 0.02 0.02 0.03 0.03 0.03 0.03 0.03 0.03 0.04 0.04 0.04 0.05 0.05
0.05 0.05 0.06 0.08 0.09 0.07 0.04 0.03 0.02 0.02 0.01 0.01 0.01 0.01 0.01 0.00 0.00 0.00 0.00 0.00 0.01 0.01 0.01 0.01 0.01 0.01 0.01 0.01 0.01 0.02 0.02 0.02 0.03 0.04 0.05 0.05 0.03 0.03 0.03 0.04 0.04 0.04 0.06
0.05 0.05 0.05 0.08 0.09 0.07 0.05 0.04 0.03 0.02 0.01 0.01 0.01 0.01 0.01 0.01 0.01 0.01 0.01 0.00 0.00 0.01 0.01 0.01 0.00 0.00 0.00 0.00 0.00 0.01 0.02 0.02 0.02 0.02 0.03 0.04 0.03 0.03 0.02 0.02 0.04 0.04 0.05
0.05 0.04 0.04 0.06 0.09 0.10 0.07 0.05 0.03 0.03 0.03 0.02 0.01 0.02 0.02 0.02 0.02 0.02 0.01 0.01 0.01 0.01 0.01 0.00 0.00 0.00 0.00 0.00 0.00 0.00 0.01 0.03 0.02 0.02 0.02 0.02 0.02 0.02 0.02 0.02 0.02 0.04 0.05
0.06 0.05 0.04 0.03 0.06 0.09 0.10 0.08 0.05 0.04 0.03 0.02 0.02 0.02 0.02 0.02 0.01 0.02 0.02 0.01 0.01 0.01 0.01 0.00 0.00 0.00 0.00 0.00 0.00 0.00 0.00 0.01 0.03 0.03 0.02 0.02 0.01 0.01 0.01 0.01 0.01 0.02 0.03
0.09 0.08 0.07 0.05 0.04 0.06 0.09 0.10 0.09 0.06 0.04 0.03 0.02 0.01 0.01 0.02 0.01 0.01 0.01 0.01 0.01 0.01 0.01 0.01 0.00 0.00 0.00 0.00 0.00 0.00 0.00 0.00 0.01 0.02 0.02 0.02 0.02 0.01 0.01 0.01 0.01 0.01 0.02
0.10 0.11 0.10 0.08 0.05 0.05 0.07 0.09 0.10 0.10 0.08 0.05 0.03 0.02 0.01 0.02 0.02 0.02 0.01 0.01 0.01 0.01 0.01 0.01 0.01 0.00 0.00 0.00 0.00 0.00 0.00 0.00 0.00 0.01 0.01 0.01 0.01 0.01 0.01 0.01 0.01 0.01 0.01
0.09 0.10 0.11 0.10 0.07 0.05 0.06 0.07 0.08 0.10 0.09 0.07 0.05 0.03 0.02 0.01 0.02 0.02 0.02 0.01 0.01 0.01 0.01 0.01 0.01 0.00 0.00 0.00 0.00 0.00 0.00 0.00 0.00 0.00 0.01 0.01 0.01 0.01 0.01 0.01 0.01 0.01 0.01
0.10 0.11 0.11 0.10 0.08 0.06 0.06 0.06 0.07 0.08 0.08 0.07 0.06 0.05 0.04 0.02 0.01 0.02 0.02 0.02 0.02 0.01 0.01 0.01 0.00 0.00 0.01 0.00 0.00 0.00 0.00 0.00 0.00 0.00 0.00 0.00 0.00 0.00 0.01 0.01 0.01 0.01 0.01
0.08 0.11 0.13 0.13 0.10 0.07 0.05 0.06 0.07 0.08 0.08 0.07 0.06 0.05 0.05 0.04 0.03 0.02 0.02 0.02 0.02 0.02 0.02 0.01 0.01 0.01 0.01 0.01 0.01 0.00 0.00 0.00 0.00 0.00 0.00 0.00 0.00 0.00 0.00 0.00 0.00 0.00 0.01
0.06 0.09 0.12 0.14 0.14 0.11 0.06 0.05 0.06 0.06 0.07 0.08 0.06 0.06 0.05 0.04 0.03 0.03 0.03 0.02 0.02 0.02 0.02 0.01 0.01 0.01 0.01 0.01 0.01 0.01 0.01 0.00 0.00 0.00 0.00 0.00 0.00 0.00 0.00 0.00 0.00 0.00 0.00
0.05 0.06 0.09 0.13 0.15 0.13 0.09 0.06 0.06 0.05 0.05 0.06 0.06 0.05 0.05 0.04 0.03 0.03 0.03 0.03 0.03 0.03 0.02 0.01 0.01 0.01 0.01 0.01 0.01 0.01 0.01 0.01 0.01 0.01 0.01 0.00 0.00 0.00 0.00 0.00 0.00 0.00 0.00
0.05 0.05 0.06 0.09 0.13 0.13 0.10 0.08 0.06 0.05 0.04 0.04 0.05 0.05 0.04 0.03 0.03 0.03 0.03 0.03 0.03 0.03 0.03 0.02 0.02 0.02 0.01 0.01 0.01 0.01 0.01 0.01 0.01 0.01 0.01 0.01 0.01 0.00 0.00 0.00 0.00 0.00 0.00
0.03 0.04 0.04 0.06 0.08 0.10 0.10 0.08 0.07 0.07 0.05 0.04 0.04 0.05 0.05 0.04 0.04 0.04 0.03 0.03 0.03 0.03 0.03 0.02 0.02 0.02 0.02 0.02 0.02 0.02 0.02 0.02 0.02 0.02 0.01 0.01 0.01 0.01 0.00 0.00 0.00 0.00 0.00
0.03 0.03 0.03 0.04 0.05 0.05 0.07 0.08 0.07 0.07 0.07 0.06 0.06 0.05 0.04 0.04 0.04 0.04 0.05 0.05 0.04 0.04 0.04 0.04 0.03 0.02 0.02 0.02 0.03 0.03 0.03 0.03 0.03 0.03 0.02 0.02 0.02 0.01 0.01 0.01 0.00 0.00 0.00
0.02 0.03 0.03 0.04 0.04 0.04 0.05 0.06 0.06 0.06 0.06 0.06 0.07 0.06 0.05 0.04 0.04 0.04 0.05 0.05 0.05 0.05 0.05 0.05 0.04 0.03 0.03 0.03 0.03 0.03 0.03 0.03 0.04 0.03 0.03 0.02 0.02 0.01 0.01 0.01 0.01 0.01 0.01
0.02 0.02 0.03 0.03 0.04 0.04 0.04 0.04 0.04 0.04 0.04 0.05 0.05 0.05 0.05 0.04 0.04 0.04 0.04 0.04 0.05 0.05 0.05 0.05 0.04 0.03 0.03 0.02 0.03 0.04 0.04 0.04 0.05 0.04 0.03 0.02 0.02 0.02 0.02 0.02 0.02 0.01 0.01
0.02 0.03 0.02 0.02 0.03 0.03 0.04 0.04 0.04 0.04 0.03 0.03 0.03 0.04 0.04 0.04 0.05 0.04 0.04 0.04 0.04 0.04 0.04 0.05 0.04 0.03 0.02 0.02 0.03 0.04 0.05 0.05 0.04 0.04 0.03 0.03 0.02 0.02 0.02 0.02 0.02 0.02 0.02
0.02 0.03 0.03 0.02 0.02 0.02 0.03 0.03 0.04 0.04 0.03 0.02 0.02 0.02 0.02 0.02 0.03 0.04 0.03 0.04 0.03 0.03 0.03 0.04 0.03 0.03 0.02 0.02 0.04 0.05 0.06 0.07 0.06 0.04 0.03 0.03 0.03 0.02 0.02 0.02 0.02 0.02 0.02
0.03 0.03 0.02 0.02 0.02 0.02 0.02 0.02 0.03 0.03 0.03 0.03 0.02 0.01 0.01 0.01 0.02 0.03 0.03 0.03 0.03 0.03 0.03 0.03 0.04 0.04 0.04 0.04 0.05 0.06 0.07 0.09 0.09 0.06 0.04 0.03 0.02 0.02 0.02 0.02 0.02 0.02 0.02
0.03 0.03 0.02 0.02 0.01 0.01 0.02 0.02 0.02 0.02 0.02 0.02 0.02 0.01 0.01 0.01 0.02 0.03 0.03 0.03 0.03 0.03 0.03 0.03 0.03 0.03 0.04 0.04 0.05 0.04 0.04 0.05 0.05 0.05 0.03 0.02 0.02 0.02 0.03 0.03 0.03 0.02 0.02
MSLP
1023.34 1024.08 1024.83 1025.55 1026.20 1026.75 1027.17 1027.47 1027.65 1027.77 1027.85 1027.95 1028.09 1028.29 1028.54 1028.83 1029.12 1029.36 1029.53 1029.59 1029.55 1029.42 1029.22 1029.01 1028.80 1028.65 1028.57 1028.57 1028.62 1028.72 1028.82 1028.90 1028.94 1028.93 1028.86 1028.76 1028.64 1028.52 1028.41 1028.32 1028.24 1028.16 1028.08
1023.59 1024.28 1025.03 1025.80 1026.53 1027.18 1027.72 1028.14 1028.43 1028.64 1028.79 1028.92 1029.09 1029.29 1029.54 1029.81 1030.08 1030.31 1030.45 1030.49 1030.42 1030.25 1030.01 1029.75 1029.50 1029.31 1029.19 1029.17 1029.22 1029.33 1029.46 1029.58 1029.66 1029.69 1029.66 1029.58 1029.47 1029.33 1029.20 1029.07 1028.95 1028.84 1028.74
1023.87 1024.50 1025.22 1026.00 1026.77 1027.51 1028.16 1028.70 1029.12 1029.43 1029.67 1029.87 1030.07 1030.29 1030.53 1030.79 1031.04 1031.24 1031.37 1031.39 1031.30 1031.12 1030.86 1030.57 1030.28 1030.05 1029.90 1029.84 1029.87 1029.97 1030.10 1030.24 1030.36 1030.43 1030.44 1030.38 1030.28 1030.14 1029.98 1029.81 1029.65 1029.50 1029.35
1024.23 1024.79 1025.46 1026.20 1026.98 1027.76 1028.49 1029.12 1029.66 1030.08 1030.42 1030.70 1030.95 1031.19 1031.43 1031.68 1031.91 1032.10 1032.22 1032.24 1032.16 1031.99 1031.74 1031.45 1031.16 1030.90 1030.71 1030.61 1030.59 1030.65 1030.76 1030.90 1031.03 1031.12 1031.16 1031.14 1031.05 1030.91 1030.73 1030.54 1030.33 1030.13 1029.95
1024.67 1025.18 1025.77 1026.46 1027.20 1027.97 1028.72 1029.41 1030.03 1030.54 1030.96 1031.32 1031.62 1031.89 1032.15 1032.40 1032.62 1032.81 1032.94 1032.99 1032.96 1032.83 1032.63 1032.38 1032.10 1031.83 1031.61 1031.45 1031.37 1031.37 1031.43 1031.54 1031.66 1031.76 1031.82 1031.82 1031.76 1031.63 1031.45 1031.23 1030.99 1030.76 1030.53
1025.19 1025.66 1026.18 1026.78 1027.45 1028.16 1028.88 1029.58 1030.22 1030.79 1031.28 1031.69 1032.04 1032.35 1032.62 1032.87 1033.10 1033.31 1033.47 1033.57 1033.61 1033.57 1033.46 1033.27 1033.04 1032.79 1032.55 1032.35 1032.20 1032.12 1032.11 1032.15 1032.23 1032.32 1032.39 1032.42 1032.38 1032.28 1032.11 1031.89 1031.64 1031.38 1031.12
1025.74 1026.19 1026.66 1027.17 1027.74 1028.35 1029.00 1029.65 1030.28 1030.86 1031.38 1031.84 1032.22 1032.55 1032.84 1033.10 1033.34 1033.57 1033.78 1033.95 1034.08 1034.16 1034.16 1034.08 1033.93 1033.72 1033.49 1033.25 1033.04 1032.88 1032.78 1032.75 1032.77 1032.83 1032.90 1032.94 1032.93 1032.86 1032.72 1032.52 1032.28 1032.01 1031.75
1026.26 1026.73 1027.17 1027.61 1028.07 1028.57 1029.12 1029.68 1030.26 1030.82 1031.34 1031.81 1032.21 1032.55 1032.85 1033.11 1033.36 1033.61 1033.86 1034.11 1034.35 1034.54 1034.68 1034.73 1034.69 1034.56 1034.36 1034.12 1033.86 1033.62 1033.44 1033.33 1033.29 1033.31 1033.36 1033.42 1033.44 1033.41 1033.31 1033.15 1032.93 1032.68 1032.42
1026.68 1027.21 1027.64 1028.04 1028.42 1028.82 1029.25 1029.73 1030.23 1030.75 1031.24 1031.70 1032.10 1032.44 1032.73 1032.99 1033.23 1033.49 1033.77 1034.08 1034.41 1034.72 1034.99 1035.19 1035.28 1035.26 1035.12 1034.90 1034.63 1034.35 1034.10 1033.92 1033.82 1033.80 1033.83 1033.89 1033.93 1033.94 1033.89 1033.77 1033.59 1033.37 1033.13
1026.94 1027.55 1028.03 1028.41 1028.75 1029.08 1029.43 1029.82 1030.26 1030.72 1031.18 1031.62 1032.00 1032.33 1032.60 1032.83 1033.05 1033.29 1033.58 1033.93 1034.32 1034.73 1035.12 1035.46 1035.69 1035.79 1035.75 1035.59 1035.34 1035.05 1034.77 1034.54 1034.39 1034.32 1034.33 1034.39 1034.45 1034.49 1034.48 1034.41 1034.28 1034.09 1033.88
1027.02 1027.72 1028.26 1028.68 1029.02 1029.33 1029.64 1029.98 1030.37 1030.79 1031.22 1031.64 1032.00 1032.31 1032.54 1032.74 1032.92 1033.13 1033.39 1033.74 1034.16 1034.63 1035.12 1035.57 1035.93 1036.16 1036.24 1036.17 1035.98 1035.72 1035.44 1035.19 1035.01 1034.91 1034.90 1034.94 1035.00 1035.07 1035.09 1035.05 1034.96 1034.81 1034.62
1026.90 1027.69 1028.33 1028.82 1029.21 1029.54 1029.85 1030.18 1030.56 1030.96 1031.39 1031.79 1032.14 1032.42 1032.63 1032.78 1032.91 1033.06 1033.28 1033.59 1034.01 1034.50 1035.05 1035.59 1036.05 1036.40 1036.60 1036.64 1036.54 1036.35 1036.10 1035.86 1035.67 1035.55 1035.51 1035.53 1035.59 1035.65 1035.68 1035.67 1035.60 1035.48 1035.32
1026.61 1027.49 1028.22 1028.81 1029.28 1029.67 1030.03 1030.39 1030.79 1031.21 1031.64 1032.06 1032.41 1032.68 1032.87 1032.99 1033.06 1033.16 1033.31 1033.56 1033.94 1034.42 1034.98 1035.56 1036.10 1036.55 1036.86 1037.01 1037.01 1036.90 1036.71 1036.51 1036.32 1036.19 1036.13 1036.12 1036.16 1036.21 1036.24 1036.23 1036.17 1036.06 1035.92
1026.20 1027.15 1027.96 1028.65 1029.22 1029.69 1030.13 1030.55 1031.00 1031.46 1031.93 1032.37 1032.75 1033.04 1033.22 1033.32 1033.36 1033.40 1033.49 1033.68 1033.99 1034.42 1034.95 1035.54 1036.12 1036.63 1037.02 1037.27 1037.37 1037.35 1037.24 1037.08 1036.92 1036.79 1036.71 1036.68 1036.68 1036.70 1036.71 1036.69 1036.63 1036.53 1036.39
1025.72 1026.70 1027.59 1028.36 1029.02 1029.60 1030.12 1030.62 1031.13 1031.65 1032.17 1032.65 1033.07 1033.40 1033.61 1033.72 1033.75 1033.76 1033.80 1033.93 1034.16 1034.53 1035.01 1035.56 1036.13 1036.66 1037.10 1037.42 1037.61 1037.66 1037.62 1037.52 1037.39 1037.28 1037.19 1037.13 1037.11 1037.09 1037.08 1037.04 1036.96 1036.86 1036.72
1025.23 1026.23 1027.15 1027.99 1028.73 1029.38 1029.98 1030.55 1031.13 1031.71 1032.28 1032.83 1033.30 1033.68 1033.94 1034.10 1034.16 1034.17 1034.19 1034.27 1034.44 1034.73 1035.13 1035.62 1036.14 1036.66 1037.11 1037.47 1037.70 1037.83 1037.85 1037.80 1037.71 1037.61 1037.53 1037.46 1037.41 1037.37 1037.32 1037.27 1037.18 1037.07 1036.93
1024.79 1025.77 1026.71 1027.57 1028.36 1029.07 1029.72 1030.36 1030.98 1031.61 1032.24 1032.83 1033.37 1033.82 1034.16 1034.38 1034.50 1034.55 1034.58 1034.64 1034.77 1034.99 1035.31 1035.72 1036.17 1036.63 1037.06 1037.41 1037.68 1037.84 1037.91 1037.91 1037.86 1037.79 1037.71 1037.64 1037.58 1037.53 1037.47 1037.40 1037.30 1037.19 1037.05
1024.44 1025.37 1026.30 1027.17 1027.97 1028.71 1029.40 1030.06 1030.71 1031.37 1032.03 1032.68 1033.28 1033.80 1034.22 1034.53 1034.74 1034.86 1034.93 1035.00 1035.11 1035.28 1035.52 1035.84 1036.21 1036.60 1036.98 1037.31 1037.56 1037.75 1037.85 1037.89 1037.88 1037.84 1037.79 1037.73 1037.67 1037.61 1037.55 1037.47 1037.38 1037.27 1037.14
1024.17 1025.07 1025.96 1026.81 1027.61 1028.35 1029.04 1029.71 1030.38 1031.05 1031.73 1032.41 1033.05 1033.64 1034.15 1034.55 1034.85 1035.06 1035.20 1035.31 1035.42 1035.56 1035.76 1036.00 1036.29 1036.60 1036.91 1037.20 1037.44 1037.62 1037.75 1037.82 1037.84 1037.84 1037.81 1037.78 1037.73 1037.68 1037.62 1037.55 1037.46 1037.36 1037.24
1024.01 1024.86 1025.72 1026.54 1027.32 1028.04 1028.73 1029.39 1030.05 1030.72 1031.40 1032.09 1032.77 1033.41 1033.99 1034.48 1034.87 1035.17 1035.39 1035.56 1035.70 1035.84 1036.01 1036.20 1036.42 1036.66 1036.91 1037.15 1037.37 1037.55 1037.68 1037.78 1037.84 1037.86 1037.86 1037.85 1037.82 1037.79 1037.74 1037.68 1037.60 1037.51 1037.39
1023.92 1024.75 1025.57 1026.36 1027.12 1027.83 1028.50 1029.15 1029.80 1030.45 1031.13 1031.82 1032.51 1033.18 1033.81 1034.37 1034.85 1035.23 1035.54 1035.77 1035.96 1036.12 1036.28 1036.45 1036.63 1036.82 1037.03 1037.24 1037.43 1037.60 1037.74 1037.86 1037.94 1037.99 1038.02 1038.02 1038.01 1037.99 1037.95 1037.89 1037.82 1037.73 1037.62
1023.90 1024.70 1025.50 1026.27 1027.01 1027.72 1028.38 1029.03 1029.67 1030.31 1030.98 1031.66 1032.35 1033.03 1033.68 1034.29 1034.83 1035.29 1035.66 1035.97 1036.21 1036.42 1036.60 1036.76 1036.93 1037.11 1037.30 1037.48 1037.66 1037.84 1037.99 1038.11 1038.21 1038.28 1038.32 1038.34 1038.34 1038.31 1038.28 1038.22 1038.15 1038.05 1037.93
1023.91 1024.71 1025.49 1026.26 1027.00 1027.70 1028.38 1029.03 1029.68 1030.32 1030.98 1031.65 1032.33 1033.01 1033.67 1034.30 1034.87 1035.38 1035.82 1036.19 1036.49 1036.74 1036.96 1037.16 1037.35 1037.53 1037.72 1037.91 1038.09 1038.27 1038.43 1038.57 1038.68 1038.76 1038.80 1038.82 1038.81 1038.78 1038.72 1038.66 1038.57 1038.46 1038.33
1023.94 1024.73 1025.51 1026.28 1027.03 1027.76 1028.46 1029.14 1029.80 1030.46 1031.12 1031.79 1032.46 1033.13 1033.78 1034.41 1035.00 1035.54 1036.03 1036.44 1036.80 1037.12 1037.39 1037.63 1037.85 1038.07 1038.28 1038.49 1038.70 1038.89 1039.06 1039.21 1039.32 1039.40 1039.44 1039.44 1039.41 1039.36 1039.29 1039.20 1039.09 1038.96 1038.81
1023.95 1024.73 1025.52 1026.30 1027.07 1027.83 1028.57 1029.30 1030.00 1030.69 1031.37 1032.05 1032.71 1033.37 1034.02 1034.64 1035.24 1035.79 1036.30 1036.76 1037.17 1037.53 1037.86 1038.16 1038.43 1038.70 1038.95 1039.19 1039.42 1039.64 1039.82 1039.98 1040.09 1040.16 1040.19 1040.18 1040.13 1040.05 1039.94 1039.82 1039.69 1039.54 1039.36
1023.93 1024.71 1025.49 1026.28 1027.07 1027.87 1028.67 1029.45 1030.21 1030.95 1031.67 1032.36 1033.04 1033.70 1034.34 1034.96 1035.55 1036.12 1036.64 1037.13 1037.58 1037.99 1038.37 1038.72 1039.05 1039.36 1039.66 1039.94 1040.20 1040.44 1040.64 1040.81 1040.93 1040.99 1041.01 1040.98 1040.90 1040.80 1040.66 1040.52 1040.35 1040.17 1039.98
Thickness
5609 5609 5608 5607 5608 5607 5607 5607 5606 5606 5607 5607 5607 5607 5607 5608 5609 5610 5610 5610 5612 5613 5615 5616 5617 5617 5617 5618 5618 5617 5617 5617 5617 5617 5617 5617 5617 5617 5618 5618 5618 5618 5618
5601 5601 5600 5600 5600 5599 5599 5599 5598 5598 5598 5598 5598 5598 5598 5599 5600 5601 5602 5602 5603 5605 5606 5607 5608 5609 5609 5609 5609 5609 5609 5609 5609 5609 5609 5609 5609 5610 5610 5610 5610 5610 5610
5593 5592 5592 5592 5591 5591 5590 5590 5590 5590 5589 5589 5589 5589 5589 5590 5591 5592 5593 5594 5595 5595 5597 5598 5599 5600 5601 5601 5601 5601 5601 5600 5600 5601 5601 5601 5601 5602 5602 5602 5603 5602 5602
5584 5584 5584 5584 5583 5582 5582 5582 5582 5581 5581 5580 5580 5580 5580 5580 5582 5583 5584 5585 5585 5586 5587 5588 5590 5591 5591 5592 5592 5592 5592 5592 5592 5592 5592 5593 5593 5593 5593 5594 5594 5594 5595
5575 5576 5576 5575 5574 5574 5573 5573 5573 5573 5572 5571 5570 5570 5570 5571 5572 5573 5574 5575 5576 5577 5578 5579 5580 5581 5582 5582 5583 5584 5584 5584 5584 5584 5584 5584 5584 5585 5585 5585 5586 5586 5586
5566 5567 5567 5567 5566 5566 5565 5565 5564 5563 5563 5562 5561 5560 5560 5561 5562 5564 5565 5565 5566 5567 5568 5569 5570 5571 5572 5572 5574 5575 5575 5575 5575 5575 5575 5575 5575 5576 5576 5577 5577 5577 5577
5557 5558 5559 5559 5559 5558 5558 5557 5555 5554 5553 5552 5552 5551 5551 5552 5553 5554 5555 5556 5557 5557 5559 5559 5560 5561 5562 5562 5563 5564 5565 5566 5566 5566 5566 5566 5566 5567 5567 5568 5568 5568 5568
5548 5549 5550 5551 5550 5550 5549 5548 5547 5546 5544 5544 5547 5547 5547 5545 5544 5544 5545 5545 5546 5547 5548 5549 5550 5551 5552 5553 5553 5554 5555 5556 5556 5557 5557 5557 5557 5558 5558 5558 5558 5558 5558
5538 5539 5541 5542 5542 5542 5542 5541 5540 5539 5537 5535 5537 5540 5542 5544 5538 5535 5534 5535 5536 5537 5538 5539 5540 5541 5541 5542 5543 5543 5544 5545 5546 5547 5547 5547 5547 5548 5548 5548 5549 5549 5549
5528 5529 5532 5533 5533 5534 5533 5532 5531 5531 5530 5529 5527 5528 5530 5533 5532 5529 5526 5525 5525 5526 5528 5529 5529 5530 5531 5531 5532 5532 5533 5534 5535 5536 5536 5537 5537 5538 5538 5538 5538 5538 5538
5519 5520 5521 5523 5524 5524 5523 5523 5522 5522 5522 5522 5520 5519 5518 5518 5520 5522 5521 5517 5516 5515 5516 5518 5519 5520 5520 5521 5521 5522 5522 5523 5524 5524 5525 5526 5526 5526 5527 5527 5527 5527 5527
5510 5511 5512 5513 5514 5514 5514 5513 5513 5513 5513 5512 5511 5510 5510 5511 5512 5512 5513 5510 5508 5506 5505 5506 5508 5509 5509 5510 5510 5511 5511 5511 5512 5513 5513 5514 5514 5514 5515 5515 5515 5516 5516
5503 5502 5502 5503 5504 5504 5503 5503 5503 5503 5502 5502 5502 5502 5501 5501 5501 5501 5501 5499 5497 5495 5494 5495 5496 5497 5498 5498 5499 5499 5499 5499 5500 5500 5501 5501 5502 5502 5502 5503 5503 5503 5503
5494 5493 5493 5492 5493 5493 5493 5492 5492 5492 5492 5492 5492 5491 5491 5490 5489 5489 5489 5488 5486 5486 5486 5487 5486 5486 5486 5487 5487 5487 5487 5487 5487 5488 5488 5489 5489 5489 5489 5490 5490 5491 5491
5483 5483 5483 5483 5482 5482 5482 5482 5482 5482 5481 5481 5481 5480 5480 5479 5478 5478 5477 5478 5479 5480 5481 5479 5476 5475 5474 5474 5475 5474 5475 5475 5475 5475 5476 5476 5476 5476 5477 5477 5477 5478 5479
5472 5472 5472 5472 5471 5471 5471 5471 5472 5471 5470 5470 5469 5469 5469 5468 5467 5466 5466 5466 5467 5470 5471 5470 5466 5464 5462 5462 5462 5462 5463 5462 5462 5463 5463 5463 5464 5464 5464 5464 5465 5465 5466
5461 5461 5461 5460 5460 5460 5460 5460 5460 5460 5460 5459 5458 5458 5458 5457 5456 5455 5454 5454 5455 5456 5458 5457 5453 5452 5450 5450 5450 5450 5450 5450 5450 5451 5451 5451 5451 5451 5452 5452 5452 5453 5453
5449 5449 5449 5448 5448 5449 5448 5449 5450 5449 5449 5448 5448 5447 5446 5445 5444 5443 5443 5442 5443 5443 5444 5443 5441 5439 5438 5438 5438 5437 5437 5438 5438 5439 5439 5439 5439 5439 5440 5440 5440 5441 5441
5437 5437 5437 5437 5437 5437 5437 5437 5438 5438 5438 5437 5437 5436 5435 5434 5433 5432 5431 5431 5431 5430 5430 5430 5429 5427 5425 5425 5425 5425 5425 5425 5426 5426 5426 5427 5427 5428 5429 5429 5428 5429 5430
5424 5425 5425 5425 5425 5425 5425 5425 5425 5426 5426 5425 5424 5424 5424 5423 5423 5421 5420 5419 5418 5417 5417 5417 5416 5415 5413 5412 5412 5414 5414 5414 5414 5414 5414 5415 5416 5417 5417 5417 5418 5418 5417
5411 5412 5412 5412 5412 5412 5413 5412 5412 5413 5413 5412 5412 5412 5412 5412 5411 5410 5409 5408 5406 5405 5404 5404 5404 5403 5402 5400 5402 5404 5404 5404 5404 5403 5403 5404 5405 5406 5406 5406 5405 5405 5405
5398 5399 5399 5400 5400 5401 5401 5401 5401 5400 5400 5400 5400 5400 5400 5400 5399 5398 5397 5397 5396 5395 5394 5393 5394 5394 5394 5393 5392 5392 5392 5392 5394 5392 5391 5393 5392 5393 5394 5394 5394 5393 5393
5385 5387 5387 5388 5388 5389 5388 5389 5389 5389 5388 5389 5388 5388 5388 5388 5387 5387 5386 5384 5383 5383 5383 5383 5384 5386 5385 5384 5382 5382 5381 5382 5384 5382 5379 5382 5382 5383 5382 5382 5382 5382 5381
5373 5374 5376 5376 5376 5376 5376 5377 5377 5377 5377 5378 5377 5377 5377 5377 5376 5375 5374 5374 5373 5373 5373 5372 5374 5375 5373 5372 5371 5371 5371 5370 5369 5368 5368 5371 5372 5372 5371 5371 5370 5369 5368
5361 5362 5364 5364 5364 5365 5364 5365 5365 5366 5366 5366 5366 5366 5366 5366 5365 5363 5363 5363 5362 5362 5361 5361 5362 5362 5361 5360 5358 5357 5358 5358 5360 5358 5356 5358 5360 5359 5359 5359 5358 5357 5356
5348 5349 5350 5351 5352 5353 5353 5353 5353 5355 5356 5356 5355 5355 5354 5354 5353 5352 5351 5351 5352 5352 5350 5350 5349 5350 5349 5349 5347 5347 5348 5348 5349 5349 5347 5346 5347 5345 5346 5347 5345 5344 5343